CW4427 Weather Reports


Display with metric or nautical units.
time (UTC)temp
F
wind
direction
speed
MPH
gust
MPH
rain 1hr
in
rain 24hr
in
rain mn
in
humidity
%
barometer
mb
20260505073919 65 148 5.0 7.0 0.00 0.00 0.00 64 1008.8
20260505073418 65 150 2.0 8.0 0.00 0.00 0.00 63 1008.8
20260505072918 66 191 1.0 8.0 0.00 0.00 0.00 62 1008.8
20260505072418 66 175 3.0 6.0 0.00 0.00 0.00 62 1009.0
20260505071918 66 199 2.0 9.0 0.00 0.00 0.00 61 1009.1
20260505071417 67 187 2.0 9.0 0.00 0.00 0.00 61 1009.2
20260505070917 67 158 1.0 7.0 0.00 0.00 0.00 60 1009.3
20260505070416 67 186 4.0 11.0 0.00 0.00 0.00 60 1009.5
20260505065916 67 200 4.0 11.0 0.00 0.00 0.00 60 1009.7
20260505064915 67 192 1.0 10.0 0.00 0.00 0.00 59 1009.9
20260505064415 67 227 4.0 9.0 0.00 0.00 0.00 59 1009.9
20260505063915 67 194 4.0 9.0 0.00 0.00 0.00 59 1009.9
20260505062914 67 180 3.0 7.0 0.00 0.00 0.00 59 1010.0
20260505061913 68 204 2.0 9.0 0.00 0.00 0.00 58 1010.1
20260505061413 67 197 3.0 10.0 0.00 0.00 0.00 58 1010.0
20260505060913 68 178 5.0 10.0 0.00 0.00 0.00 58 1010.2
20260505060412 67 200 4.0 9.0 0.00 0.00 0.00 58 1010.1
20260505055912 67 189 5.0 9.0 0.00 0.00 0.00 59 1010.3
20260505054912 68 174 1.0 6.0 0.00 0.00 0.00 58 1010.2
20260505054411 68 189 2.0 6.0 0.00 0.00 0.00 58 1010.1
20260505053912 68 136 2.0 6.0 0.00 0.00 0.00 58 1010.2
20260505053411 68 210 3.0 6.0 0.00 0.00 0.00 58 1010.2
20260505052911 68 175 1.0 6.0 0.00 0.00 0.00 58 1010.1
20260505052410 68 171 1.0 6.0 0.00 0.00 0.00 58 1010.2
20260505051910 68 232 2.0 9.0 0.00 0.00 0.00 58 1010.2
20260505051409 68 168 1.0 9.0 0.00 0.00 0.00 57 1010.2
20260505050909 68 188 2.0 8.0 0.00 0.00 0.00 57 1010.3
20260505050409 69 212 0.0 10.0 0.00 0.00 0.00 56 1010.3
20260505041406 69 198 2.0 5.0 0.00 0.00 0.00 57 1010.5
20260505040906 69 221 3.0 6.0 0.00 0.00 0.00 56 1010.4
20260505040405 69 153 1.0 7.0 0.00 0.00 0.00 56 1010.4
20260505035405 69 163 2.0 6.0 0.00 0.00 0.00 56 1010.4
20260505034904 69 200 0.0 9.0 0.00 0.00 0.00 55 1010.3
20260505034404 69 175 3.0 9.0 0.00 0.00 0.00 55 1010.2
20260505033903 69 191 2.0 8.0 0.00 0.00 0.00 55 1010.3
20260505033403 70 142 4.0 8.0 0.00 0.00 0.00 55 1010.4
20260505032903 70 199 4.0 8.0 0.00 0.00 0.00 55 1010.3
20260505032403 70 175 1.0 9.0 0.00 0.00 0.00 55 1010.4
20260505031402 70 159 8.0 8.0 0.00 0.00 0.00 54 1010.3
20260505030902 70 161 5.0 9.0 0.00 0.00 0.00 54 1010.3
20260505030402 70 194 2.0 10.0 0.00 0.00 0.00 53 1010.3
20260505025901 70 181 2.0 10.0 0.00 0.00 0.00 54 1010.2
20260505025401 70 117 6.0 9.0 0.00 0.00 0.00 53 1010.3
20260505024902 70 169 4.0 8.0 0.00 0.00 0.00 53 1010.1
20260505023401 71 219 2.0 6.0 0.00 0.00 0.00 52 1010.2
20260505022902 71 214 2.0 6.0 0.00 0.00 0.00 51 1010.1
20260505020902 71 178 3.0 7.0 0.00 0.00 0.00 50 1009.8
20260505015901 72 155 2.0 8.0 0.00 0.00 0.00 50 1009.8
20260505014901 72 266 1.0 7.0 0.00 0.00 0.00 50 1009.6
20260505014401 72 209 2.0 6.0 0.00 0.00 0.00 49 1009.5
20260505013901 72 196 1.0 8.0 0.00 0.00 0.00 49 1009.5
20260505012902 73 209 1.0 7.0 0.00 0.00 0.00 49 1009.6
20260505012401 73 175 2.0 11.0 0.00 0.00 0.00 48 1009.6
20260505011901 73 196 5.0 12.0 0.00 0.00 0.00 48 1009.6
20260505011401 73 197 5.0 14.0 0.00 0.00 0.00 47 1009.7
20260505010901 73 202 4.0 14.0 0.00 0.00 0.00 47 1009.6
20260505010402 74 258 4.0 11.0 0.00 0.00 0.00 47 1009.6
20260505005901 74 190 3.0 11.0 0.00 0.00 0.00 47 1009.5
20260505004401 74 203 5.0 14.0 0.00 0.00 0.00 46 1009.2
20260505003901 74 194 6.0 14.0 0.00 0.00 0.00 46 1009.2
20260505003401 75 159 7.0 9.0 0.00 0.00 0.00 46 1009.2
20260505002901 75 221 1.0 6.0 0.00 0.00 0.00 46 1009.2
20260505002402 75 179 1.0 9.0 0.00 0.00 0.00 44 1009.1
20260505001901 75 203 4.0 9.0 0.00 0.00 0.00 43 1009.2
20260505001401 76 209 2.0 10.0 0.00 0.00 0.00 43 1009.2
20260505000400 76 246 7.0 15.0 0.00 0.00 0.00 42 1009.3
20260504235900 77 188 3.0 12.0 0.00 0.00 0.00 42 1009.2
20260504235400 77 190 4.0 10.0 0.00 0.00 0.00 41 1009.3
20260504234859 77 184 1.0 10.0 0.00 0.00 0.00 41 1009.3
20260504234359 77 173 1.0 12.0 0.00 0.00 0.00 41 1009.3
20260504233858 77 292 1.0 12.0 0.00 0.00 0.00 40 1009.2
20260504233358 77 225 3.0 10.0 0.00 0.00 0.00 40 1009.3
20260504232858 78 92 2.0 10.0 0.00 0.00 0.00 40 1009.4
20260504232357 78 306 4.0 10.0 0.00 0.00 0.00 39 1009.3
20260504231857 78 277 3.0 13.0 0.00 0.00 0.00 39 1009.3
20260504231356 78 251 3.0 13.0 0.00 0.00 0.00 39 1009.3
20260504230856 78 180 5.0 15.0 0.00 0.00 0.00 40 1009.4
20260504225855 78 74 3.0 15.0 0.00 0.00 0.00 38 1009.6
20260504225355 79 184 3.0 16.0 0.00 0.00 0.00 37 1009.6
20260504224854 79 234 15.0 16.0 0.00 0.00 0.00 37 1009.6
20260504224354 79 201 1.0 14.0 0.00 0.00 0.00 38 1009.5
20260504223854 79 227 6.0 16.0 0.00 0.00 0.00 37 1009.7
20260504223354 80 111 7.0 16.0 0.00 0.00 0.00 38 1009.6
20260504222854 80 179 5.0 15.0 0.00 0.00 0.00 38 1009.5
20260504222354 80 238 6.0 15.0 0.00 0.00 0.00 38 1009.5
20260504221854 80 216 6.0 14.0 0.00 0.00 0.00 38 1009.6
20260504221354 80 192 1.0 14.0 0.00 0.00 0.00 37 1009.5
20260504220354 80 324 1.0 13.0 0.00 0.00 0.00 38 1009.6
20260504214924 81 259 1.0 18.0 0.00 0.00 0.00 36 1009.5
20260504214424 81 221 9.0 18.0 0.00 0.00 0.00 35 1009.6
20260504213854 82 284 4.0 11.0 0.00 0.00 0.00 35 1009.7
20260504213354 82 160 2.0 13.0 0.00 0.00 0.00 37 1009.7
20260504212923 82 106 3.0 13.0 0.00 0.00 0.00 37 1009.6
20260504212423 82 225 3.0 12.0 0.00 0.00 0.00 36 1009.6
20260504211923 82 309 4.0 13.0 0.00 0.00 0.00 37 1009.6
20260504211423 82 201 6.0 13.0 0.00 0.00 0.00 36 1009.8
20260504210853 82 186 3.0 17.0 0.00 0.00 0.00 37 1009.8
20260504205923 82 256 5.0 17.0 0.00 0.00 0.00 39 1009.8
20260504204923 82 223 5.0 12.0 0.00 0.00 0.00 37 1010.0
20260504204422 82 195 9.0 12.0 0.00 0.00 0.00 36 1010.1
20260504203852 82 162 12.0 12.0 0.00 0.00 0.00 39 1010.3
20260504203351 83 271 8.0 14.0 0.00 0.00 0.00 37 1010.3
20260504202922 82 182 4.0 14.0 0.00 0.00 0.00 38 1010.4
20260504202351 83 200 6.0 11.0 0.00 0.00 0.00 40 1010.5
20260504201351 82 193 7.0 15.0 0.00 0.00 0.00 39 1010.8
20260504200921 82 246 2.0 15.0 0.00 0.00 0.00 38 1010.7
20260504200351 82 231 1.0 13.0 0.00 0.00 0.00 38 1010.8
20260504195921 82 212 3.0 18.0 0.00 0.00 0.00 39 1010.7
20260504195421 82 246 8.0 18.0 0.00 0.00 0.00 38 1010.9
20260504194421 83 178 7.0 12.0 0.00 0.00 0.00 37 1011.2
20260504193921 83 296 1.0 12.0 0.00 0.00 0.00 38 1011.1
20260504193351 82 172 7.0 20.0 0.00 0.00 0.00 36 1011.3
20260504192851 83 168 10.0 20.0 0.00 0.00 0.00 36 1011.5
20260504191920 82 200 9.0 21.0 0.00 0.00 0.00 37 1011.5
20260504191420 82 226 4.0 19.0 0.00 0.00 0.00 39 1011.7
20260504190921 83 219 8.0 15.0 0.00 0.00 0.00 40 1011.8
20260504190421 82 267 4.0 15.0 0.00 0.00 0.00 35 1011.8
20260504185921 82 205 1.0 14.0 0.00 0.00 0.00 37 1011.9
20260504185420 82 123 4.0 14.0 0.00 0.00 0.00 37 1012.0
20260504184921 82 167 6.0 15.0 0.00 0.00 0.00 38 1012.1
20260504184421 82 339 5.0 16.0 0.00 0.00 0.00 38 1011.9
20260504183921 82 190 5.0 16.0 0.00 0.00 0.00 37 1012.0
20260504183420 83 196 4.0 12.0 0.00 0.00 0.00 40 1012.2
20260504182921 82 192 4.0 9.0 0.00 0.00 0.00 40 1012.1
20260504182421 81 156 7.0 13.0 0.00 0.00 0.00 41 1012.0
20260504181921 81 198 9.0 13.0 0.00 0.00 0.00 40 1012.1
20260504181421 80 184 6.0 13.0 0.00 0.00 0.00 41 1012.2
20260504180921 79 312 4.0 12.0 0.00 0.00 0.00 41 1012.2
20260504180421 79 182 3.0 19.0 0.00 0.00 0.00 42 1012.4
20260504175920 79 250 1.0 19.0 0.00 0.00 0.00 41 1012.3
20260504175420 80 22 1.0 18.0 0.00 0.00 0.00 40 1012.4
20260504173918 81 201 4.0 15.0 0.00 0.00 0.00 40 1012.7
20260504173418 80 215 1.0 13.0 0.00 0.00 0.00 41 1012.6
20260504172918 80 284 11.0 13.0 0.00 0.00 0.00 41 1012.7
20260504172418 81 267 8.0 16.0 0.00 0.00 0.00 41 1012.9
20260504171417 80 136 4.0 10.0 0.00 0.00 0.00 45 1012.9
20260504170416 80 202 2.0 14.0 0.00 0.00 0.00 44 1013.0
20260504160415 78 208 4.0 9.0 0.00 0.00 0.00 52 1013.7
20260504150915 74 161 4.0 10.0 0.00 0.00 0.00 53 1014.3
20260504150415 74 238 8.0 10.0 0.00 0.00 0.00 54 1014.2
20260504140915 71 223 3.0 10.0 0.00 0.00 0.00 59 1014.3
20260504140415 72 202 3.0 8.0 0.00 0.00 0.00 60 1014.3
20260504130414 66 169 4.0 8.0 0.00 0.00 0.00 67 1013.9
20260504110404 61 167 3.0 7.0 0.00 0.00 0.00 71 1013.3
20260504100358 62 209 5.0 6.0 0.00 0.00 0.00 68 1013.6
20260504081919 62 155 2.0 5.0 0.00 0.00 0.00 66 1013.9
20260504080418 62 186 2.0 7.0 0.00 0.00 0.00 65 1014.0